Regional Weather Roundup
Issued by NWS

Home | Current Version | Previous Version | Text Only | Print | Product List | Glossary Off
Versions: 1 2 3 4 5 6 7 8 9 10 11 12 13 14 15 16 17 18 19 20 21 22 23 24 25 26 27 28 29 30 31 32 33 34 35 36 37 38 39 40 41 42 43 44 45 46 47 48 49 50

000
ASUS43 KMKX 271611
RWRWI

WISCONSIN REGIONAL WEATHER ROUNDUP
NATIONAL WEATHER SERVICE MILWAUKEE/SULLIVAN WI
1100 AM CDT TUE SEP 27 2016

NOTE: "FAIR" INDICATES FEW OR NO CLOUDS BELOW 12,000 FEET WITH NO
SIGNIFICANT WEATHER AND/OR OBSTRUCTIONS TO VISIBILITY.

WIZ001-002-006>008-014>016-023>028-271700-
NORTHWEST WISCONSIN

CITY           SKY/WX    TMP DP  RH WIND       PRES   REMARKS
SUPERIOR ARPT  CLOUDY    52  45  76 NW14G20   29.71S
ASHLAND        CLOUDY    50  48  93 W8        29.66S
HAYWARD        CLOUDY    51  43  74 VRB6      29.70S
SIREN          CLOUDY    51  43  74 W12       29.75S
CUMBERLAND     CLOUDY    50  41  71 W16G23    29.74S
RICE LAKE      CLOUDY    52  43  71 W8        29.75S
CHETEK         NOT AVBL
LADYSMITH      CLOUDY    52  45  77 W13       29.72S
EAU CLAIRE     CLOUDY    55  44  66 W15G25    29.75S
MENOMONIE      CLOUDY    55  43  64 W13G22    29.77F
NEW RICHMOND   CLOUDY    54  41  62 NW18G24   29.78S
OSCEOLA        CLOUDY    54  43  66 W14G21    29.81S
$$

WIZ003>005-009-010-017-018-271700-
NORTH CENTRAL WISCONSIN

CITY           SKY/WX    TMP DP  RH WIND       PRES   REMARKS
MANITOWISH WTR NOT AVBL
ARBOR VITAE    LGT RAIN  49  47  93 NW12G17   29.63S
WOODRUFF       LGT RAIN  49  47  93 NW12G17   29.63S
RHINELANDER    LGT RAIN  49  48  97 W13G21    29.64S
EAGLE RIVER    LGT RAIN  47  46  95 NW10G18   29.61R
LAND O LAKES   DRIZZLE   47  45  91 W10       29.62R
PHILLIPS       CLOUDY    48  47  95 CALM      29.67R
TOMAHAWK       CLOUDY    49  46  90 W12G18    29.66S
MEDFORD        CLOUDY    49  47  90 W16G28    29.69S
MERRILL        CLOUDY    51  47  84 W13G18    29.67F
$$

WIZ029-030-035-036-043>047-271700-
CENTRAL WISCONSIN

CITY           SKY/WX    TMP DP  RH WIND       PRES   REMARKS
WAUSAU         CLOUDY    51  45  79 W15       29.67S
MOSINEE        CLOUDY    52  46  82 W17       29.70S
MARSHFIELD     CLOUDY    54  43  66 NW15      29.71R
STEVENS POINT  CLOUDY    52  43  71 W15G21    29.71R
WAUPACA        CLOUDY    57  45  64 W12G23    29.70S
WAUTOMA        CLOUDY    55  44  66 W17G23    29.73S
WISC RAPIDS    CLOUDY    53  44  71 W12G21    29.73S
CAMP DOUGLAS   CLOUDY    55  43  62 W18       29.75S
$$

WIZ011>013-019>022-031-037>040-048>050-271700-
NORTHEAST WISCONSIN

CITY           SKY/WX    TMP DP  RH WIND       PRES   REMARKS
ANTIGO         CLOUDY    49  48  95 W10G23    29.64F
SHAWANO        CLOUDY    58  46  64 W18       29.66R
OCONTO         NOT AVBL
STURGEON BAY   CLOUDY    56  46  69 W13G24    29.62S
GREEN BAY      CLOUDY    57  47  69 W20       29.65F
MANITOWOC      CLOUDY    57  44  62 W16       29.67S
APPLETON       PTSUNNY   54  43  66 W17G26    29.67S
CLINTONVILLE   NOT AVBL
OSHKOSH        CLOUDY    55  43  63 W9G20     29.70S
$$

WIZ032>034-041-042-053>061-271700-
SOUTHWEST WISCONSIN

CITY           SKY/WX    TMP DP  RH WIND       PRES   REMARKS
LA CROSSE      MOSUNNY   61  43  51 W16G22    29.79F
SPARTA         CLOUDY    55  43  63 W14G20    29.77F
VIROQUA        PTSUNNY   56  40  56 W13G21    29.80F
BOSCOBEL       SUNNY     61  41  47 NW15G28   29.81F
PRAIRIE DU CHI SUNNY     61  37  41 W21G29    29.82F
PLATTEVILLE    SUNNY     60  42  50 W21G28    29.83F
$$

WIZ056-057-062-063-064-067-068-271700-
SOUTH CENTRAL WISCONSIN

CITY           SKY/WX    TMP DP  RH WIND       PRES   REMARKS
REEDSBURG      NOT AVBL
BARABOO/DELLS  CLOUDY    54  39  57 W16G26    29.76F
LONE ROCK      MOSUNNY   59  41  51 W21G29    29.79F
MINERAL POINT  SUNNY     61  39  44 W21       29.80F
MADISON        PTSUNNY   57  40  52 NW12G21   29.76F
MIDDLETON      NOT AVBL
WATERTOWN      CLOUDY    55  42  61 W15G21    29.75S
MONROE         SUNNY     59  37  44 W23G33    29.80S
JANESVILLE     MOSUNNY   63  39  42 W17G25    29.78F
$$

WIZ051-052-058>065-066-070>072-271700-
SOUTHEAST WISCONSIN

CITY           SKY/WX    TMP DP  RH WIND       PRES   REMARKS
MILWAUKEE      MOSUNNY   60  40  47 W21G26    29.75F
WAUKESHA       PTSUNNY   55  39  54 W12G25    29.75F
MILWAUKEE/TIMM PTSUNNY   57  37  47 W22G29    29.74F
RACINE         SUNNY     60  39  45 W18G26    29.75F
BURLINGTON     SUNNY     60  38  44 W17G25    29.76F
KENOSHA        SUNNY     61  40  45 W18G31    29.75F
FOND DU LAC    CLOUDY    54  42  64 W17G25    29.71F
SHEBOYGAN      CLOUDY    58  44  60 W15G22    29.69S
WEST BEND      CLOUDY    54  41  62 W15G23    29.72S
JUNEAU         CLOUDY    54  41  62 W17G25    29.75S
$$

LSZ147-162-271700-
LAKE SUPERIOR

STATION/POSITION TIME  TEMP    WIND        PRES    WAVE
                       AIR SEA DIR/SP/G            HT/PER
                 (UTC) (F)     (DEG/KT/KT) (MB)    (FT/S)
W MID LAKE BUOY  1550   50 47  290/ 16/ 17 1001.3R   4/ 6
DEVILS ISLAND    1600   51     300/ 16/ 18 1003.6R
SAXON HARBOR     1540   51     260/  7/ 11 1004.1R
$$

LMZ867-665-643>646-271700-
LAKE MICHIGAN

STATION/POSITION TIME  TEMP    WIND        PRES    WAVE
                       AIR SEA DIR/SP/G            HT/PER
                 (UTC) (F)     (DEG/KT/KT) (MB)    (FT/S)
CHAMBERS ISLAND  1500   56     240/  8/ 19 1002.0R
N MID LAKE BUOY  1550   57 66  260/ 21/ 25 1000.5R   5/ 5
NORTHPORT PIER   1500   56     260/  6/ 15 1002.0R
SISTER BAY       1508   57     290/ 20/ 23   N/A
KEWAUNEE LAKESHO 1500   54     270/ 10/ 15 1003.5F
SHEBOYGAN LAKESH 1600   55     270/ 14/ 16 1005.2F
PORT WASHINGTON  1500   58     290/ 13/ 22 1006.8
ATWATER BUOY     1600   57 55  250/ 19/ 25 1006.8F
MILWAUKEE LAKESH 1510   57     280/ 14/ 17   N/A
S MID LAKE BUOY  1550   59 70  260/ 21/ 25 1006.6F   6/ 6
KENOSHA   LAKESH 1600   60     260/ 18/ 28 1007.5F
$$

TC  - TEMPERATURE IN CELSIUS
VSB - VISIBILITY IN STATUTE MILES
WCI - WIND CHILL INDEX
HX  - HEAT INDEX





USA.gov is the U.S. government's official web portal to all federal, state and local government web resources and services.